Theta_e
313 313 313 314 314 313 313 314 314 315 316 316 316 316 316 316 316 309 304 313 316 326 321 304 301 301 303 300 303 303 292 290 293 297 299 305 301 306 310 310 313 318 315 318 317
313 313 313 313 313 313 313 313 314 314 315 315 316 316 315 316 308 306 316 328 331 326 304 299 296 297 294 298 299 297 291 293 299 300 299 303 303 304 307 308 308 310 316 319 316
313 313 313 313 313 313 313 313 313 314 314 315 315 315 315 314 304 310 329 329 327 321 306 307 307 302 291 293 296 295 292 297 300 302 303 303 303 305 306 304 308 308 312 315 313
312 312 312 313 313 312 312 312 313 313 314 314 314 314 315 309 296 305 333 331 328 310 309 310 306 292 290 290 294 291 297 299 301 303 302 301 305 303 304 306 312 313 313 314 312
312 312 311 312 312 312 312 312 312 312 313 314 314 314 309 301 305 314 332 328 315 311 309 308 303 296 289 291 293 290 295 298 301 301 301 303 302 302 303 306 309 312 313 313 313
311 311 311 311 312 312 312 312 312 313 313 313 314 315 306 293 306 319 318 315 310 306 309 306 302 300 295 294 292 295 296 296 297 296 296 297 298 298 302 305 305 306 307 311 312
311 311 311 311 311 312 313 313 313 314 314 314 315 312 303 297 311 316 313 308 310 311 307 304 303 300 297 295 296 296 292 294 295 296 295 297 295 297 301 303 302 303 305 308 312
312 312 311 311 311 312 312 313 313 314 316 316 315 308 298 311 309 307 309 308 310 310 307 306 304 299 295 295 295 292 289 285 293 297 298 296 291 298 301 300 301 303 303 308 310
312 311 311 311 311 312 313 313 314 315 318 317 306 303 298 317 311 311 309 308 309 309 307 309 301 296 296 289 286 287 284 287 291 296 296 295 293 299 301 300 300 300 301 302 305
312 311 311 311 311 312 313 313 313 313 315 314 310 300 305 308 308 308 307 309 305 304 302 300 294 291 289 286 281 285 285 288 289 294 294 292 292 296 299 299 299 298 300 301 302
311 311 311 311 311 312 308 305 304 303 306 301 302 302 307 314 309 304 307 305 305 300 292 295 289 286 290 291 293 292 290 289 292 296 292 291 291 294 297 297 297 297 298 300 301
311 311 311 310 311 312 304 301 307 302 296 307 308 306 310 313 307 305 308 300 298 292 294 291 287 294 296 296 294 293 290 288 292 295 293 291 291 294 296 296 297 297 298 298 299
311 311 310 311 310 306 303 307 314 308 296 301 307 307 308 310 306 303 305 301 296 293 292 288 293 298 296 294 293 292 289 288 289 293 293 291 288 291 296 297 299 299 299 299 299
311 311 310 308 307 306 305 312 308 307 290 297 301 305 307 307 299 307 307 302 296 293 293 291 296 296 294 293 293 287 294 294 292 288 283 291 282 288 292 294 297 298 297 298 300
311 310 310 308 300 302 308 311 309 305 282 304 301 307 303 299 301 303 307 301 295 295 293 291 293 292 292 293 296 292 296 293 292 287 284 286 282 285 291 291 294 297 299 300 300
311 310 309 307 304 307 311 310 306 293 285 299 301 298 296 298 300 302 302 302 301 294 294 294 298 295 294 297 297 298 293 290 288 284 280 284 284 286 287 291 293 297 300 301 301
310 309 306 306 301 307 307 304 291 285 302 298 298 298 296 295 297 298 296 293 290 286 286 292 294 297 299 293 295 293 286 279 280 278 280 287 284 287 291 296 298 298 298 299 300
308 307 306 306 303 306 306 297 285 295 297 302 299 298 294 296 296 296 293 289 293 292 288 287 285 295 299 295 290 291 288 283 278 276 281 289 282 287 296 298 300 300 300 300 301
306 302 306 307 306 308 300 289 290 297 300 299 296 292 292 295 295 293 291 291 294 294 287 286 287 298 299 299 296 290 287 293 287 288 283 284 288 293 296 298 299 298 298 298 299
301 301 306 314 311 306 296 292 295 301 301 299 290 293 288 291 291 291 291 296 295 298 294 290 284 295 297 299 298 294 295 285 285 279 278 283 284 284 290 293 297 299 298 298 299
298 297 310 314 311 300 290 293 298 304 304 297 293 291 292 290 290 290 292 296 299 296 295 291 288 289 294 292 290 289 287 287 285 283 279 275 280 291 292 295 294 296 299 297 299
295 292 307 311 297 296 293 298 301 300 302 299 298 294 291 292 290 291 291 294 299 297 291 292 288 284 288 295 297 292 289 287 280 281 284 283 281 295 295 295 296 298 299 299 300
295 295 306 307 292 291 296 297 300 299 298 298 297 296 295 291 287 293 295 300 299 296 293 292 285 280 283 287 290 288 290 290 288 285 279 278 280 293 294 295 295 297 299 299 300
293 291 299 300 299 293 292 294 294 301 299 299 296 296 293 291 293 290 291 297 297 296 303 296 287 284 280 283 286 285 288 288 285 276 281 282 285 290 292 293 295 296 298 298 298
298 293 296 290 292 293 294 294 294 294 298 298 294 294 291 287 289 289 291 292 295 297 292 290 284 286 288 290 289 288 287 287 284 285 282 285 286 289 293 295 296 297 300 300 300
296 294 295 293 295 293 293 292 293 294 293 293 292 294 294 289 289 287 288 288 288 291 288 286 281 284 283 289 289 286 287 288 288 288 288 290 288 296 298 298 298 299 300 300 301
300 301 296 293 293 291 291 293 294 295 295 296 295 293 291 293 293 292 291 291 290 287 286 284 281 280 277 285 286 281 286 289 290 293 292 287 292 297 296 297 297 297 300 301 301
Wind_Speed
15 13 12 13 14 14 14 14 14 14 14 13 13 13 13 14 15 2 7 12 8 10 2 4 3 3 1 4 3 3 2 5 6 7 8 18 5 5 7 8 3 12 5 8 8
15 14 14 13 12 13 14 14 14 14 14 13 12 12 13 13 4 8 13 14 14 8 5 4 2 2 2 4 3 5 4 8 7 6 9 17 8 8 6 8 5 5 1 5 7
16 15 15 14 13 13 13 13 14 14 14 13 12 12 13 9 4 7 8 14 9 7 3 0 2 2 5 2 5 5 6 4 8 10 12 17 15 6 8 7 7 8 8 4 6
16 16 15 15 14 14 14 14 13 13 13 12 12 13 14 2 3 3 7 10 8 4 1 1 2 1 3 4 6 4 7 11 13 13 12 14 15 15 10 9 8 10 8 3 6
18 17 16 15 15 15 14 14 13 12 12 11 10 11 5 2 10 5 10 8 5 4 2 2 1 2 3 4 5 4 6 9 14 15 14 16 18 19 17 9 7 7 8 12 7
18 18 17 17 16 15 14 13 13 12 12 10 8 8 1 3 6 8 8 5 6 4 3 6 5 9 3 2 1 4 5 9 8 9 6 7 10 4 11 5 9 8 8 9 10
17 17 17 17 16 16 15 13 12 11 10 6 5 3 2 15 3 7 10 8 5 6 4 4 1 6 1 8 1 6 7 9 4 4 5 3 10 12 7 7 12 7 9 9 12
18 17 17 16 16 16 15 14 14 13 9 5 3 1 8 5 4 5 5 8 8 7 8 5 3 0 2 2 9 4 3 4 7 5 8 6 18 14 12 6 13 14 7 9 11
19 17 18 16 15 15 15 15 15 12 5 5 2 2 11 10 7 12 12 11 10 8 6 6 3 3 3 3 6 3 4 7 9 6 7 6 16 13 11 11 14 11 10 7 9
20 18 18 17 15 14 15 16 4 3 2 5 5 3 6 4 4 4 9 16 4 1 3 0 4 0 3 5 5 6 4 5 5 6 4 5 10 9 12 10 16 9 8 8 7
22 19 17 17 15 11 8 4 3 1 3 9 7 6 10 5 4 6 7 4 4 2 3 5 2 8 14 10 12 10 10 12 5 8 4 6 10 10 9 5 8 8 8 7 6
22 22 20 18 14 7 1 1 7 3 10 19 19 14 16 6 7 6 7 5 5 6 3 4 7 16 10 12 12 13 14 8 7 5 5 10 13 11 6 7 7 8 7 8 5
20 20 20 19 18 2 3 7 8 6 5 10 9 9 10 7 9 11 9 6 6 6 6 8 11 11 10 12 10 11 7 5 7 6 4 4 6 6 7 5 6 8 7 8 10
21 20 19 23 1 3 5 7 9 5 4 8 6 6 6 5 6 9 11 10 5 12 9 8 12 6 9 7 4 5 8 10 6 2 7 3 12 5 7 10 6 9 9 10 10
22 21 18 8 3 2 6 10 8 6 3 3 4 6 8 9 4 2 8 6 14 10 6 12 6 10 10 11 10 12 12 12 10 6 5 4 7 3 3 14 17 15 16 14 12
24 19 16 2 2 8 9 12 3 5 6 3 3 4 6 6 6 2 5 3 4 6 5 13 6 6 10 14 12 15 8 5 4 2 9 7 7 10 5 10 7 7 10 12 11
25 27 7 3 5 1 5 4 5 3 7 7 3 2 4 3 7 7 6 6 8 3 7 10 12 13 10 5 6 4 5 5 8 5 12 6 8 13 6 6 8 11 11 8 9
29 23 5 5 5 2 4 4 3 4 4 11 8 4 1 5 5 7 6 3 7 2 2 5 5 2 5 4 4 2 4 3 6 4 10 5 7 7 4 6 5 10 10 6 10
16 6 3 5 6 2 5 2 5 3 6 7 5 4 5 8 2 7 3 4 5 1 4 4 4 4 3 4 4 4 4 11 8 7 5 5 7 7 11 11 7 11 9 7 6
7 5 5 2 7 4 4 4 5 3 12 6 2 2 3 5 5 5 3 4 7 6 2 4 5 1 6 3 3 2 1 3 3 3 5 4 5 7 7 6 9 10 8 8 6
4 5 5 7 4 5 3 6 6 10 10 5 3 3 3 2 3 4 4 8 5 6 5 5 1 4 2 4 4 3 3 5 4 4 3 3 6 7 5 5 8 10 7 4 1
4 4 3 5 1 2 3 5 6 12 6 4 2 5 5 3 3 3 4 3 10 7 5 3 3 2 5 7 7 3 5 5 5 4 3 3 9 18 18 10 6 13 6 8 8
5 4 5 3 2 2 6 7 8 12 12 7 4 6 6 4 4 3 6 8 8 8 5 4 3 4 7 6 5 3 5 4 2 3 6 5 8 11 8 13 13 15 13 12 9
3 5 5 4 3 5 6 5 10 10 12 8 3 2 3 4 3 4 7 5 6 5 9 3 3 7 6 6 4 6 9 6 8 4 7 11 21 20 20 14 14 10 11 12 8
1 4 3 4 3 7 5 8 10 9 7 10 7 9 7 4 5 6 4 5 4 1 3 3 4 3 6 7 8 11 14 14 11 12 8 15 17 16 6 10 7 4 6 11 13
3 4 5 6 6 10 7 8 10 13 11 9 9 14 14 8 7 11 4 5 6 1 2 2 3 4 11 8 9 12 12 14 16 15 7 6 8 5 8 6 8 8 9 9 7
2 3 2 4 3 1 3 5 9 15 8 8 12 12 14 13 5 10 11 8 8 6 4 3 4 2 5 3 6 7 3 4 4 5 2 3 4 10 10 8 10 7 6 5 5
Wind_Direction
338 336 335 332 328 322 320 321 318 319 319 319 318 319 316 317 314 267 230 221 191 221 277 267 294 245 185 240 207 115 142 232 230 235 263 284 285 301 289 303 322 242 134 163 180
336 331 327 326 323 322 320 319 318 318 318 318 319 318 314 322 282 242 238 215 216 180 199 209 223 179 256 219 242 155 184 228 220 230 253 276 270 291 293 283 298 335 61 140 102
335 331 327 324 321 320 319 317 317 318 318 321 321 317 315 321 292 255 238 212 191 186 213 176 296 193 199 147 225 215 221 230 258 248 253 268 281 265 236 275 255 235 250 166 140
336 332 330 325 321 318 317 316 315 317 319 323 324 318 314 265 242 255 142 177 186 200 164 36 37 238 193 222 227 236 263 236 255 253 260 263 273 276 198 215 229 259 254 179 162
338 334 328 325 320 316 314 313 315 315 316 317 318 321 355 330 254 214 164 165 163 159 188 149 334 208 290 268 330 189 254 249 240 253 256 258 261 263 263 202 211 221 262 268 198
341 336 330 323 319 314 311 310 309 309 311 308 304 315 196 273 243 161 152 158 235 186 211 141 222 223 213 264 153 303 284 269 283 255 234 242 269 236 279 160 194 209 220 248 250
344 337 332 325 320 316 311 306 302 305 306 297 288 273 241 237 300 161 168 202 196 200 237 214 217 57 351 336 326 295 326 320 281 266 272 268 286 255 278 315 302 212 213 228 239
342 338 335 329 322 317 311 306 302 300 302 260 235 290 249 240 244 226 209 294 272 231 228 262 289 41 96 307 345 329 7 324 277 306 271 122 266 273 262 231 271 285 211 215 227
344 339 336 331 324 317 308 294 289 288 288 165 138 143 267 304 174 219 198 223 233 252 242 233 126 186 334 72 354 335 242 270 301 199 256 163 275 288 291 249 245 248 271 226 232
345 341 336 334 328 321 307 293 252 322 164 191 266 346 272 239 204 205 179 208 237 66 36 288 50 142 6 88 234 238 227 263 249 298 185 266 262 277 289 243 240 234 245 262 267
343 342 339 335 332 326 344 17 26 80 233 202 197 236 284 310 114 189 196 230 225 103 231 279 103 232 241 207 235 247 260 262 247 246 307 271 275 282 286 290 273 241 236 249 263
341 340 338 333 327 315 304 211 229 144 292 228 232 223 256 277 292 211 159 178 149 205 235 351 247 249 241 254 238 240 242 254 257 251 283 281 283 272 274 276 256 251 256 248 226
337 336 335 328 319 155 204 237 262 32 291 289 210 213 225 183 239 227 165 196 191 206 222 203 247 274 262 263 258 247 216 235 246 282 306 310 288 308 302 269 278 290 279 288 240
334 333 334 328 350 345 255 267 304 157 17 278 193 226 185 210 262 211 179 170 193 216 228 235 257 264 305 295 288 271 258 249 255 250 261 142 283 260 282 294 287 285 271 259 259
328 329 325 310 284 286 252 322 310 60 338 208 178 163 159 170 185 244 175 151 215 207 150 243 251 264 286 273 285 271 269 246 245 225 167 212 280 163 356 291 283 283 281 275 261
326 324 324 122 200 241 306 304 53 50 265 238 135 182 125 216 239 257 182 196 209 213 224 241 241 179 238 265 276 274 300 298 332 141 250 207 211 264 252 256 269 283 271 271 280
326 319 301 260 221 316 336 31 49 163 293 5 78 120 266 270 255 233 225 206 203 201 249 265 268 267 253 330 327 33 355 319 281 294 268 207 257 271 241 267 249 278 289 290 12
332 323 181 216 248 342 28 63 187 261 300 357 3 349 219 11 348 2 3 264 251 214 257 242 300 77 2 303 253 163 169 191 285 258 303 355 260 266 255 238 266 284 278 234 115
338 326 274 251 190 115 77 95 218 267 329 345 358 345 344 348 42 19 322 253 47 110 219 230 227 263 268 1 20 292 211 235 261 250 245 223 285 303 282 291 330 352 9 337 267
337 323 272 186 146 80 80 233 256 296 310 311 8 271 273 302 314 339 265 267 338 16 139 260 294 92 292 267 263 204 291 322 16 257 249 259 275 249 326 335 337 336 342 355 17
12 343 279 121 80 59 181 233 276 288 324 306 305 285 311 357 326 321 277 315 28 353 2 9 242 319 138 181 233 313 103 59 117 146 257 289 261 223 231 270 285 260 271 208 345
351 326 295 354 61 195 204 206 308 326 352 318 320 212 201 223 248 272 255 281 318 308 294 200 209 240 238 275 282 129 153 127 123 231 227 265 261 262 274 259 273 284 261 256 222
324 273 301 118 253 298 328 323 331 346 334 351 341 11 4 5 333 262 304 333 8 30 13 322 290 323 317 352 352 120 188 180 136 92 205 247 272 272 267 283 302 269 260 248 234
353 325 322 13 41 33 338 295 330 317 313 360 304 29 332 299 204 276 306 301 4 351 42 53 205 195 234 234 200 277 274 246 181 166 238 232 267 280 284 301 293 267 278 286 286
308 281 10 337 353 330 333 285 350 347 348 341 344 0 342 294 290 281 287 310 295 63 77 89 236 267 264 262 273 276 280 279 247 241 238 276 263 265 316 328 326 317 311 280 265
334 354 348 299 299 338 325 334 345 338 344 321 335 329 324 287 250 289 210 201 227 320 84 43 251 331 285 262 265 276 284 282 271 269 261 296 323 345 306 310 317 316 337 4 6
349 328 262 266 296 314 248 322 328 328 311 348 329 331 312 307 271 248 221 214 215 199 175 201 165 156 275 248 297 286 228 281 316 15 298 299 347 335 288 308 293 276 305 316 319